{"data":{"norad_id":87448,"intl_designator":"","name":"UNKNOWN","alt_names":[],"object_type":"UNKNOWN","status":"UNKNOWN","operator":null,"country":null,"launch_date":null,"launch_site_code":null,"launch_vehicle":null,"mission":null,"orbit_class":"UNKNOWN","rcs_meters":null,"size_class":null,"mass_kg":null,"dimensions":null,"purposes":[],"wikipedia_slug":null,"has_3d_model":false,"image_url":null,"decayed_at":null,"tle_current":{"epoch":"2026-05-24T02:02:22.547616Z","epoch_age_seconds":150026,"freshness":"FRESH","line1":"1 87448U          26144.08498319  .00001009  00000+0  83284-3 0  9997","line2":"2 87448 100.4454  15.6587 0062631 141.4431 219.1222 13.91075599631805","mean_motion":13.91075599,"eccentricity":0.0062631,"inclination_deg":100.4454,"raan_deg":15.6587,"arg_perigee_deg":141.4431,"mean_anomaly_deg":219.1222,"bstar":0.00083284,"rev_number":63180,"period_min":103.51701956638,"perigee_km":879.12445347694,"apogee_km":970.60330307842,"semimajor_km":7303.0008782777,"source":"CELESTRAK","updated_at":"2026-05-25T13:38:11.670489Z"}}}